Location: Long Island Community Building
(39.9491°N, 99.5338°W)
Time: 13:58:30
(UTC+00:00)

Cosmos 1331 Rocket - Pass Details

Date: 06 December 2019
Orbit: 749 x 779 km, 74.0° (Epoch: 28 January)

Event Time Altitude Azimuth Distance (km) Brightness Sun altitude
Rises 23:32:41 0° 341° (NNW) 3,235 7.2 -4.2°
Reaches altitude 10° 23:35:03 10° 342° (NNW) 2,310 6.4 -4.6°
Maximum altitude 23:40:19 86° 69° (ENE) 778 4.0 -5.5°
Drops below altitude 10° 23:45:35 10° 161° (SSE) 2,313 6.6 -6.4°
Sets 23:47:58 0° 162° (SSE) 3,239 7.3 -6.9°
